WAT3568 KPHX-MMUN

Flight info

Callsign WAT3568
Flight time N/A
Altitude 35000
Route RSG242046 MAM UT22 VESKO UT11 URTEL UT47 XUDUN XUDUN1A MMUN
Aircraft A21N/M-SDE3FGHIRWY/LB1

Departure

Time N/A
Airport Phoenix Sky Harbor International Airport (KPHX)

Arrival

Time 2026-05-04 03:54
Airport Cancún International Airport (MMUN)
Time Latitude Longitude Altitude Speed Heading
2026-05-04 02:51 23.95884 -94.05559 35086 ft 511 kts 112°
2026-05-04 02:52 23.93184 -93.98399 35088 ft 510 kts 112°
2026-05-04 02:52 23.90480 -93.91235 35089 ft 510 kts 112°
2026-05-04 02:53 23.87785 -93.84111 35090 ft 510 kts 112°
2026-05-04 02:53 23.85068 -93.76953 35090 ft 509 kts 112°
2026-05-04 02:54 23.82375 -93.69857 35089 ft 510 kts 112°
2026-05-04 02:54 23.79660 -93.62711 35088 ft 509 kts 112°
2026-05-04 02:55 23.75591 -93.52023 35086 ft 508 kts 112°
2026-05-04 02:56 23.72891 -93.44944 35086 ft 509 kts 112°
2026-05-04 02:56 23.70169 -93.37811 35085 ft 508 kts 112°
2026-05-04 02:57 23.67456 -93.30718 35084 ft 508 kts 113°
2026-05-04 02:57 23.64738 -93.23626 35084 ft 508 kts 113°
2026-05-04 02:58 23.61998 -93.16484 35085 ft 509 kts 113°
2026-05-04 02:58 23.59266 -93.09382 35084 ft 509 kts 113°
2026-05-04 02:59 23.56447 -93.02069 35084 ft 509 kts 113°
2026-05-04 02:59 23.53660 -92.94828 35083 ft 509 kts 113°
2026-05-04 03:00 23.50914 -92.87722 35082 ft 509 kts 113°
2026-05-04 03:00 23.48160 -92.80603 35077 ft 509 kts 113°
2026-05-04 03:01 23.45409 -92.73511 35077 ft 509 kts 113°
2026-05-04 03:01 23.42669 -92.66440 35075 ft 508 kts 114°
2026-05-04 03:02 23.39925 -92.59389 35071 ft 508 kts 113°
2026-05-04 03:02 23.37181 -92.52342 35072 ft 508 kts 114°
2026-05-04 03:03 23.34431 -92.45282 35072 ft 508 kts 113°
2026-05-04 03:03 23.31672 -92.38216 35076 ft 508 kts 114°
2026-05-04 03:04 23.28920 -92.31186 35077 ft 508 kts 114°
2026-05-04 03:04 23.26160 -92.24140 35078 ft 508 kts 114°
2026-05-04 03:05 23.23397 -92.17096 35076 ft 508 kts 114°
2026-05-04 03:05 23.20623 -92.10034 35077 ft 508 kts 115°
2026-05-04 03:06 23.17853 -92.02998 35076 ft 507 kts 115°
2026-05-04 03:06 23.15084 -91.95965 35075 ft 506 kts 114°
2026-05-04 03:07 23.12327 -91.88986 35062 ft 506 kts 114°
2026-05-04 03:07 23.09558 -91.81995 35056 ft 506 kts 114°
2026-05-04 03:08 23.06784 -91.74990 35052 ft 505 kts 115°
2026-05-04 03:08 23.04004 -91.67974 35050 ft 505 kts 115°
2026-05-04 03:09 23.01244 -91.61031 35052 ft 505 kts 114°
2026-05-04 03:09 22.98453 -91.54009 35051 ft 506 kts 114°
2026-05-04 03:10 22.95675 -91.47025 35048 ft 504 kts 114°
2026-05-04 03:10 22.92893 -91.40070 35049 ft 505 kts 115°
2026-05-04 03:11 22.90107 -91.33115 35044 ft 504 kts 115°
2026-05-04 03:11 22.87314 -91.26144 35045 ft 504 kts 115°
2026-05-04 03:12 22.84521 -91.19187 35045 ft 503 kts 115°
2026-05-04 03:12 22.81739 -91.12264 35047 ft 504 kts 115°
2026-05-04 03:13 22.78952 -91.05337 35043 ft 503 kts 115°
2026-05-04 03:13 22.76161 -90.98402 35041 ft 504 kts 115°
2026-05-04 03:14 22.73365 -90.91482 35042 ft 502 kts 115°
2026-05-04 03:14 22.70559 -90.84542 35044 ft 503 kts 115°
2026-05-04 03:15 22.67755 -90.77615 35041 ft 502 kts 115°
2026-05-04 03:15 22.64957 -90.70715 35039 ft 503 kts 115°
2026-05-04 03:16 22.62160 -90.63813 35041 ft 501 kts 115°
2026-05-04 03:16 22.59352 -90.56907 35043 ft 501 kts 115°
2026-05-04 03:17 22.56550 -90.50023 35043 ft 501 kts 115°
2026-05-04 03:17 22.53753 -90.43159 35038 ft 501 kts 115°
2026-05-04 03:18 22.50627 -90.36478 35040 ft 498 kts 122°
2026-05-04 03:18 22.47012 -90.30109 35036 ft 498 kts 124°
2026-05-04 03:19 22.43350 -90.23749 35030 ft 497 kts 124°
2026-05-04 03:19 22.39716 -90.17422 35026 ft 498 kts 125°
2026-05-04 03:20 22.36074 -90.11065 35024 ft 497 kts 124°
2026-05-04 03:20 22.32463 -90.04761 35020 ft 496 kts 124°
2026-05-04 03:21 22.28830 -89.98430 35020 ft 497 kts 124°
2026-05-04 03:21 22.25193 -89.92097 35024 ft 496 kts 124°
2026-05-04 03:22 22.21561 -89.85780 35020 ft 495 kts 124°
2026-05-04 03:22 22.17941 -89.79491 35015 ft 495 kts 125°
2026-05-04 03:23 22.14296 -89.73171 35013 ft 494 kts 124°
2026-05-04 03:23 22.10680 -89.66902 35012 ft 494 kts 124°
2026-05-04 03:24 22.07065 -89.60644 35010 ft 494 kts 124°
2026-05-04 03:24 22.03429 -89.54355 35010 ft 493 kts 124°
2026-05-04 03:25 21.99816 -89.48117 35009 ft 493 kts 125°
2026-05-04 03:25 21.96189 -89.41869 34810 ft 494 kts 124°
2026-05-04 03:25 21.94370 -89.38746 34520 ft 492 kts 124°
2026-05-04 03:26 21.92570 -89.35651 34241 ft 488 kts 124°
2026-05-04 03:26 21.90774 -89.32565 33956 ft 487 kts 124°
2026-05-04 03:26 21.88974 -89.29472 33667 ft 487 kts 124°
2026-05-04 03:26 21.87077 -89.26215 33254 ft 488 kts 123°
2026-05-04 03:27 21.85283 -89.23138 32743 ft 490 kts 124°
2026-05-04 03:27 21.83487 -89.20052 32141 ft 491 kts 123°
2026-05-04 03:27 21.81668 -89.16920 31476 ft 492 kts 123°
2026-05-04 03:27 21.79848 -89.13793 30772 ft 493 kts 124°
2026-05-04 03:28 21.78046 -89.10706 30063 ft 493 kts 124°
2026-05-04 03:28 21.76226 -89.07587 29378 ft 493 kts 124°
2026-05-04 03:28 21.74418 -89.04491 28930 ft 487 kts 124°
2026-05-04 03:28 21.72626 -89.01424 28489 ft 482 kts 124°
2026-05-04 03:29 21.70844 -88.98383 28022 ft 477 kts 124°
2026-05-04 03:29 21.69080 -88.95374 27549 ft 473 kts 123°
2026-05-04 03:29 21.67352 -88.92421 27075 ft 470 kts 123°
2026-05-04 03:29 21.65608 -88.89475 26605 ft 467 kts 124°
2026-05-04 03:30 21.63845 -88.86547 26146 ft 463 kts 124°
2026-05-04 03:30 21.62100 -88.83669 25683 ft 460 kts 123°
2026-05-04 03:30 21.60367 -88.80810 25225 ft 457 kts 123°
2026-05-04 03:30 21.58646 -88.77967 24765 ft 454 kts 123°
2026-05-04 03:31 21.56938 -88.75143 24310 ft 452 kts 122°
2026-05-04 03:31 21.55224 -88.72308 23846 ft 449 kts 122°
2026-05-04 03:31 21.53527 -88.69500 23389 ft 447 kts 122°
2026-05-04 03:31 21.51843 -88.66712 22927 ft 445 kts 121°
2026-05-04 03:32 21.50167 -88.63947 22465 ft 443 kts 121°
2026-05-04 03:32 21.48509 -88.61198 22014 ft 441 kts 121°
2026-05-04 03:32 21.46840 -88.58431 21559 ft 439 kts 121°
2026-05-04 03:32 21.45181 -88.55683 21103 ft 437 kts 122°
2026-05-04 03:33 21.43535 -88.52963 20648 ft 434 kts 122°
2026-05-04 03:33 21.41911 -88.50281 20387 ft 425 kts 122°
2026-05-04 03:33 21.40318 -88.47662 20205 ft 414 kts 122°
2026-05-04 03:33 21.38779 -88.45129 20092 ft 402 kts 122°
2026-05-04 03:34 21.37373 -88.42561 19985 ft 388 kts 114°
2026-05-04 03:34 21.36431 -88.39938 19746 ft 380 kts 104°
2026-05-04 03:34 21.35800 -88.37167 19233 ft 380 kts 100°
2026-05-04 03:34 21.35264 -88.34449 18899 ft 376 kts 101°
2026-05-04 03:35 21.34726 -88.31696 18452 ft 374 kts 101°
2026-05-04 03:35 21.34143 -88.28797 18006 ft 367 kts 102°
2026-05-04 03:35 21.33523 -88.25794 17333 ft 367 kts 103°
2026-05-04 03:35 21.32890 -88.22786 16935 ft 364 kts 103°
2026-05-04 03:36 21.32266 -88.19845 16457 ft 357 kts 103°
2026-05-04 03:36 21.31648 -88.16933 15871 ft 356 kts 103°
2026-05-04 03:36 21.31025 -88.13995 15323 ft 364 kts 103°
2026-05-04 03:36 21.30383 -88.10973 14870 ft 361 kts 102°
2026-05-04 03:37 21.29747 -88.07980 14450 ft 358 kts 102°
2026-05-04 03:37 21.29114 -88.05051 14041 ft 349 kts 102°
2026-05-04 03:37 21.28498 -88.02251 13546 ft 338 kts 102°
2026-05-04 03:37 21.27890 -87.99498 13105 ft 328 kts 102°
2026-05-04 03:38 21.27292 -87.96781 12557 ft 322 kts 102°
2026-05-04 03:38 21.26711 -87.94130 12053 ft 318 kts 102°
2026-05-04 03:38 21.26128 -87.91479 11580 ft 317 kts 103°
2026-05-04 03:38 21.25577 -87.88972 11146 ft 315 kts 103°
2026-05-04 03:39 21.25005 -87.86381 10703 ft 313 kts 103°
2026-05-04 03:39 21.24431 -87.83780 10266 ft 311 kts 103°
2026-05-04 03:39 21.23874 -87.81261 9859 ft 308 kts 103°
2026-05-04 03:39 21.23313 -87.78725 9458 ft 299 kts 103°
2026-05-04 03:40 21.22771 -87.76271 9078 ft 296 kts 103°
2026-05-04 03:40 21.22240 -87.73808 8666 ft 295 kts 100°
2026-05-04 03:40 21.21967 -87.71303 8247 ft 293 kts 91°
2026-05-04 03:40 21.21962 -87.68805 7836 ft 291 kts 88°
2026-05-04 03:41 21.22004 -87.66319 7435 ft 288 kts 88°
2026-05-04 03:41 21.22047 -87.63883 7054 ft 285 kts 88°
2026-05-04 03:41 21.22085 -87.61452 6672 ft 283 kts 88°
2026-05-04 03:41 21.22118 -87.59097 6298 ft 280 kts 88°
2026-05-04 03:42 21.22147 -87.56860 5943 ft 278 kts 88°
2026-05-04 03:42 21.22175 -87.54653 5597 ft 275 kts 88°
2026-05-04 03:42 21.22202 -87.52480 5256 ft 272 kts 88°
2026-05-04 03:42 21.22228 -87.50281 4903 ft 270 kts 88°
2026-05-04 03:43 21.22251 -87.48216 4579 ft 267 kts 88°
2026-05-04 03:43 21.22274 -87.46235 4259 ft 265 kts 88°
2026-05-04 03:43 21.22297 -87.44283 3948 ft 263 kts 88°
2026-05-04 03:43 21.22318 -87.42340 3637 ft 260 kts 88°
2026-05-04 03:44 21.22339 -87.40404 3319 ft 258 kts 88°
2026-05-04 03:44 21.22359 -87.38527 3149 ft 249 kts 88°
2026-05-04 03:44 21.22378 -87.36711 3071 ft 236 kts 88°
2026-05-04 03:44 21.22395 -87.34988 2985 ft 225 kts 90°
2026-05-04 03:45 21.22324 -87.33325 2986 ft 226 kts 93°
2026-05-04 03:45 21.22220 -87.31640 2983 ft 227 kts 93°
2026-05-04 03:45 21.22113 -87.29961 2983 ft 226 kts 93°
2026-05-04 03:45 21.22006 -87.28278 2982 ft 226 kts 93°
2026-05-04 03:46 21.21899 -87.26595 2981 ft 226 kts 93°
2026-05-04 03:46 21.21812 -87.24913 2982 ft 226 kts 90°
2026-05-04 03:46 21.21856 -87.23236 2981 ft 226 kts 86°
2026-05-04 03:46 21.21945 -87.21545 2978 ft 226 kts 86°
2026-05-04 03:47 21.22037 -87.19867 2977 ft 226 kts 86°
2026-05-04 03:47 21.22127 -87.18196 2973 ft 226 kts 86°
2026-05-04 03:47 21.22216 -87.16511 2970 ft 226 kts 87°
2026-05-04 03:47 21.22055 -87.14832 2950 ft 228 kts 109°
2026-05-04 03:48 21.21293 -87.13357 2972 ft 229 kts 122°
2026-05-04 03:48 21.20391 -87.11950 2966 ft 229 kts 123°
2026-05-04 03:48 21.19498 -87.10562 2961 ft 222 kts 123°
2026-05-04 03:48 21.18622 -87.09184 2964 ft 221 kts 123°
2026-05-04 03:49 21.17740 -87.07782 2964 ft 220 kts 122°
2026-05-04 03:49 21.16890 -87.06421 2963 ft 219 kts 122°
2026-05-04 03:49 21.16058 -87.05091 2949 ft 210 kts 122°
2026-05-04 03:49 21.15245 -87.03793 2948 ft 197 kts 122°
2026-05-04 03:50 21.14487 -87.02565 3086 ft 194 kts 121°
2026-05-04 03:50 21.13762 -87.01388 2867 ft 189 kts 121°
2026-05-04 03:50 21.13033 -87.00215 2606 ft 186 kts 122°
2026-05-04 03:50 21.12318 -86.99070 2367 ft 184 kts 122°
2026-05-04 03:51 21.11602 -86.97929 2162 ft 181 kts 122°
2026-05-04 03:51 21.10934 -86.96864 1898 ft 165 kts 121°
2026-05-04 03:51 21.10328 -86.95898 1660 ft 150 kts 121°
2026-05-04 03:51 21.09750 -86.94975 1472 ft 148 kts 121°
2026-05-04 03:52 21.09175 -86.94057 1304 ft 148 kts 121°
2026-05-04 03:52 21.08605 -86.93146 1126 ft 147 kts 122°
2026-05-04 03:52 21.08031 -86.92230 942 ft 147 kts 122°
2026-05-04 03:52 21.07461 -86.91318 754 ft 147 kts 122°
2026-05-04 03:53 21.06892 -86.90408 563 ft 146 kts 123°
2026-05-04 03:53 21.06336 -86.89512 366 ft 146 kts 123°
2026-05-04 03:53 21.05769 -86.88609 173 ft 145 kts 123°
2026-05-04 03:53 21.05213 -86.87727 61 ft 139 kts 123°
2026-05-04 03:54 21.04735 -86.86954 40 ft 100 kts 124°
2026-05-04 03:54 21.04437 -86.86507 37 ft 54 kts 134°
2026-05-04 03:54 21.04229 -86.86358 40 ft 10 kts 153°
2026-05-04 03:54 21.04164 -86.86320 40 ft 10 kts 150°
2026-05-04 03:55 21.04106 -86.86272 41 ft 10 kts 133°
2026-05-04 03:55 21.04057 -86.86222 42 ft 9 kts 157°
2026-05-04 03:55 21.03995 -86.86243 42 ft 10 kts 214°
2026-05-04 03:55 21.03931 -86.86291 41 ft 11 kts 214°
2026-05-04 03:56 21.03862 -86.86340 43 ft 13 kts 213°
2026-05-04 03:56 21.03777 -86.86401 42 ft 17 kts 213°
2026-05-04 03:56 21.03667 -86.86478 43 ft 19 kts 213°
2026-05-04 03:56 21.03543 -86.86566 42 ft 22 kts 213°
2026-05-04 03:57 21.03412 -86.86659 39 ft 23 kts 213°
2026-05-04 03:57 21.03348 -86.86736 36 ft 13 kts 271°
2026-05-04 03:57 21.03393 -86.86835 35 ft 16 kts 301°
2026-05-04 03:57 21.03459 -86.86941 34 ft 18 kts 305°
2026-05-04 03:58 21.03614 -86.87184 30 ft 20 kts 303°
2026-05-04 03:58 21.03694 -86.87313 29 ft 20 kts 304°
2026-05-04 03:58 21.03766 -86.87428 26 ft 16 kts 305°
2026-05-04 03:59 21.03824 -86.87511 24 ft 10 kts 321°
2026-05-04 03:59 21.03881 -86.87530 25 ft 8 kts 349°
2026-05-04 03:59 21.03911 -86.87540 25 ft 4 kts 331°
2026-05-04 03:59 21.03927 -86.87548 25 ft 0 kts 334°